Regional Weather Roundup
Issued by NWS

Home | Current Version | Previous Version | Text Only | Print | Product List | Glossary On
Versions: 1 2 3 4 5 6 7 8 9 10 11 12 13 14 15 16 17 18 19 20 21 22 23 24 25 26 27 28 29 30 31 32 33 34 35 36 37 38 39 40 41 42 43 44 45 46 47 48 49 50
325
ASUS43 KOAX 091010
RWRNE

WEATHER ROUNDUP FOR NEBRASKA
NATIONAL WEATHER SERVICE OMAHA NE
400 AM CST TUE FEB 09 2016

NOTES: SATELLITE DATA IS BEING USED TO AUGMENT CLOUD COVER ABOVE
       12000 FEET.
       "FAIR" INDICATES FEW OR NO CLOUDS BELOW 12,000 FEET WITH NO
       SIGNIFICANT WEATHER AND/OR OBSTRUCTIONS TO VISIBILITY.

  * THESE STATIONS DO NOT REPORT WEATHER SUCH AS RAIN...SNOW OR FOG.

NEZ001>004-019>022-054>056-091100-
NEBRASKA PANHANDLE

CITY           SKY/WX    TMP DP  RH WIND       PRES   REMARKS
SCOTTSBLUFF    CLEAR     33  25  72 NW14      30.23F WCI  23
ALLIANCE       CLEAR     33  25  72 NW15      30.18F WCI  23
CHADRON        CLEAR     32  25  75 NW10      30.23S WCI  24
KIMBALL        CLEAR     35  25  67 W20       30.24F WCI  24
SIDNEY         CLEAR     32  24  72 NW16      30.21F WCI  21
$$

NEZ057>060-069>072-079>082-091100-
SOUTHWEST NEBRASKA

CITY           SKY/WX    TMP DP  RH WIND       PRES   REMARKS
NORTH PLATTE   MOCLDY    25  18  74 NW8       30.19S WCI  16
IMPERIAL       CLOUDY    30  23  75 NW7       30.20F WCI  23
LEXINGTON      MOCLDY    29  19  66 NW10      30.18R WCI  19
MCCOOK         CLOUDY    29  21  72 W12       30.21S WCI  19
OGALLALA       CLOUDY    22  19  88 W5        30.20F WCI  15
$$

NEZ005>010-023>029-035>040-094-091100-
NORTH CENTRAL NEBRASKA

CITY           SKY/WX    TMP DP  RH WIND       PRES   REMARKS
VALENTINE      CLOUDY    28  18  66 N7        30.22R WCI  21
AINSWORTH      CLOUDY    27  17  64 N20G25    30.21R WCI  14
BROKEN BOW     CLOUDY    29  17  61 N18       30.15S WCI  16
O`NEILL        PTCLDY    22  13  68 N18       30.19R WCI   7
ORD            PTCLDY    25  18  74 N15       30.16R WCI  13
THEDFORD       CLOUDY    30  18  59 N12       30.19S WCI  21
$$

NEZ041-046>049-061>064-073>077-083>087-091100-
SOUTH CENTRAL NEBRASKA

CITY           SKY/WX    TMP DP  RH WIND       PRES   REMARKS
GRAND ISLAND   CLEAR     19  12  74 N9        30.18R WCI   8
AURORA         CLEAR     21  14  73 NW13      30.16R WCI   9
HASTINGS       CLEAR     22  14  71 NW9       30.15S WCI  12
HEBRON         CLEAR     26  18  72 N10       30.16S WCI  16
HOLDREGE       MOCLDY    27  18  70 W6        30.17S WCI  20
YORK           PTCLDY    23  14  68 N12       30.15S WCI  12
$$

NEZ011>018-030>034-042>045-091100-
NORTHEAST NEBRASKA

CITY           SKY/WX    TMP DP  RH WIND       PRES   REMARKS
NORFOLK        CLEAR     19   9  65 N21G32    30.16R WCI   3
ALBION         CLEAR     20   9  61 N17G28    30.16R WCI   6
BLAIR          CLEAR     18   8  64 N24G32    30.10R WCI   0
COLUMBUS *     CLEAR     19   3  49 NW15      30.16R WCI   5
FREMONT        CLEAR     19   9  63 N16G28    30.14R WCI   4
TEKAMAH        PTCLDY    17   7  64 N24       30.15R WCI  -1
WAYNE          CLEAR     16   7  69 N22       30.15R WCI  -2
$$

NEZ050>053-065>068-078-088>093-091100-
SOUTHEAST NEBRASKA

CITY           SKY/WX    TMP DP  RH WIND       PRES   REMARKS
LINCOLN        CLEAR     22  12  65 N18       30.14S WCI   7
OMAHA EPPLEY   CLEAR     17   9  70 N18G24    30.13R WCI   1
BEATRICE       PTCLDY    24  13  64 N17G23    30.13S WCI  11
FALLS CITY     CLEAR     23  11  60 NW24G35   30.08R WCI   7
NEBRASKA CITY  PTCLDY    21  11  65 N20       30.10R WCI   6
PLATTSMOUTH    PTCLDY    19  10  65 NW15G21   30.10R WCI   5
$$

NEZ044-045-051>053-067-091100-
OMAHA AREA

CITY           SKY/WX    TMP DP  RH WIND       PRES   REMARKS
OMAHA EPPLEY   CLEAR     17   9  70 N18G24    30.13R WCI   1
BLAIR          CLEAR     18   8  64 N24G32    30.10R WCI   0
FREMONT        CLEAR     19   9  63 N16G28    30.14R WCI   4
MILLARD        CLEAR     21  10  62 NW13G22   30.13R WCI   8
OFFUTT AFB     CLEAR     19  10  68 N14       30.12R WCI   5
PLATTSMOUTH    PTCLDY    19  10  65 NW15G21   30.10R WCI   5
WAHOO          FAIR      20  12  71 N21       30.13S WCI   4
$$




USA.gov is the U.S. government's official web portal to all federal, state and local government web resources and services.